Observations for Trim Patrick St
| Time | AQI | Temp °C | Hum % | Pres Pa | CO μg/m³ | H₂S μg/m³ | NO μg/m³ | NO₂ μg/m³ | O₃ μg/m³ | SO₂ μg/m³ | PM1 μg/m³ | PM2.5 μg/m³ | PM10 μg/m³ |
|---|---|---|---|---|---|---|---|---|---|---|---|---|---|
| Wednesday 26 August 2026 | |||||||||||||
| 22:39 | 3 | 16.6 | 80 | 38,460 | 0.1 | 7.37 | 1.55 | 26.49 | 38.26 | 0 | 21.72 | 29.67 | 32.64 |
| 22:38 | 3 | 16.6 | 80 | 38,460 | 0.1 | 6.98 | 1.33 | 25.5 | 40.75 | 0 | 21.72 | 31.08 | 31.98 |
| 22:36 | 3 | 16.7 | 80 | 38,460 | 0.1 | 8.16 | 1.21 | 28.7 | 37.82 | 0 | 18.29 | 27.6 | 29.25 |
| 22:34 | 3 | 16.7 | 80 | 38,460 | 0.15 | 8.55 | 1.45 | 26.57 | 41.58 | 0 | 20.86 | 29.01 | 32.05 |
| 22:31 | 3 | 16.8 | 80 | 38,460 | 0.07 | 9.13 | 1.45 | 29.61 | 40.99 | 0 | 20 | 28.38 | 31.21 |
| 22:30 | 3 | 16.8 | 79 | 38,460 | 0.07 | 6.22 | 1.34 | 23.57 | 45.08 | 0 | 22.57 | 30.51 | 30.88 |
| 22:29 | 3 | 16.8 | 80 | 38,460 | 0.07 | 8.29 | 1.32 | 24.35 | 47.67 | 0 | 21.72 | 29.79 | 30.15 |
| 22:28 | 3 | 16.8 | 79 | 38,460 | 0.07 | 8.71 | 1.22 | 31.8 | 39.16 | 0 | 20.86 | 29.1 | 29.49 |
| 22:27 | 3 | 16.8 | 80 | 38,460 | 0.06 | 10.3 | 1.26 | 23.85 | 43.81 | 0 | 20.86 | 27.69 | 30.46 |
| 22:26 | 3 | 16.8 | 79 | 38,460 | 0.07 | 12.47 | 1.18 | 40.97 | 48.78 | 0 | 21.72 | 31.21 | 32.97 |
| 22:25 | 3 | 16.9 | 79 | 38,460 | 0.07 | 11.19 | 1.22 | 43.73 | 40.36 | 0 | 19.14 | 28.43 | 31.27 |
| 22:24 | 3 | 16.9 | 79 | 38,460 | 0.07 | 7.4 | 1.13 | 24.46 | 48.07 | 0 | 20 | 28.42 | 31.26 |
| 22:23 | 3 | 16.9 | 79 | 38,460 | 0.06 | 7.3 | 1.42 | 23.67 | 49.44 | 0 | 18.29 | 25.62 | 28.19 |
| 22:22 | 3 | 16.9 | 79 | 38,460 | 0.05 | 7.32 | 1.38 | 22.42 | 51.61 | 0 | 18.29 | 27.05 | 27.51 |
| 22:21 | 3 | 16.9 | 79 | 38,460 | 0.06 | 9.07 | 1.3 | 26.35 | 48.88 | 0 | 20 | 29.86 | 33.1 |
| 22:20 | 3 | 16.9 | 79 | 38,460 | 0.07 | 8.39 | 1.28 | 27.98 | 46.75 | 0 | 20.86 | 29.16 | 32.08 |
| 22:19 | 3 | 17 | 79 | 38,460 | 0.06 | 7.82 | 1.24 | 26 | 48.31 | 0 | 20 | 27.77 | 28.23 |
| 22:18 | 3 | 17 | 79 | 38,460 | 0.06 | 7.79 | 1.04 | 25.46 | 48.88 | 0 | 18.29 | 26.38 | 29.01 |
| 22:17 | 3 | 17 | 79 | 38,460 | 0.05 | 8.58 | 1.25 | 26.48 | 49.35 | 0 | 18.29 | 27.08 | 27.56 |
| 22:16 | 3 | 17 | 79 | 38,460 | 0.05 | 8.94 | 1.38 | 28.68 | 46.11 | 0 | 19.14 | 27.09 | 27.59 |